Location: Brunembert
(50.7122°N, 1.8935°E)
Time: 10:56:49
(UTC+00:00)

Genesis I - Pass Details

Date: 22 April 2021
Orbit: 482 x 537 km, 64.5° (Epoch: 16 May)

Event Time Altitude Azimuth Distance (km) Brightness Sun altitude
Rises 20:44:18 0° 313° (NW) 2,675 8.8 -14.9°
Reaches altitude 10° 20:46:36 10° 305° (NW) 1,788 7.3 -15.2°
Maximum altitude 20:50:17 36° 238° (WSW) 869 4.4 -15.6°
Enters shadow 20:52:35 19° 183° (S) 1,312 4.9 -15.8°
